Location: Kermapucano
(48.0667°N, 3.3000°W)
Time: 20:15:05
(UTC+00:00)

Cosmos 2297 Rocket - Pass Details

Date: 29 November 2020
Orbit: 840 x 842 km, 71.0° (Epoch: 27 January)

Event Time Altitude Azimuth Distance (km) Brightness Sun altitude
Exits shadow 04:30:17 12° 3° (N) 2,315 4.5 -31.0°
Drops below altitude 10° 04:30:53 10° 8° (N) 2,473 4.7 -30.9°
Sets 04:33:56 0° 23° (NNE) 3,411 5.6 -30.3°
